| time (UTC) | temp F | wind direction | speed MPH | gust MPH | rain 1hr in | rain 24hr in | rain mn in | humidity % | barometer mb |
| 20260508115237 | 44 | 205 | 0.0 | 1.0 | 0.00 | 0.00 | 0.00 | 47 | 1007.6 |
| 20260508114727 | 43 | 205 | 0.0 | 0.0 | 0.00 | 0.00 | 0.00 | 47 | 1007.6 |
| 20260508114224 | 42 | 205 | 0.0 | 0.0 | 0.00 | 0.00 | 0.00 | 48 | 1007.7 |
| 20260508113721 | 42 | 205 | 0.0 | 0.0 | 0.00 | 0.00 | 0.00 | 50 | 1007.5 |
| 20260508113220 | 42 | 205 | 0.0 | 0.0 | 0.00 | 0.00 | 0.00 | 49 | 1007.5 |
| 20260508112715 | 41 | 205 | 0.0 | 0.0 | 0.00 | 0.00 | 0.00 | 50 | 1007.6 |
| 20260508112212 | 41 | 205 | 0.0 | 1.0 | 0.00 | 0.00 | 0.00 | 50 | 1007.5 |
| 20260508111709 | 41 | 205 | 1.0 | 1.0 | 0.00 | 0.00 | 0.00 | 51 | 1007.4 |
| 20260508111207 | 40 | 210 | 2.0 | 2.0 | 0.00 | 0.00 | 0.00 | 53 | 1007.4 |
| 20260508110704 | 40 | 209 | 1.0 | 1.0 | 0.00 | 0.00 | 0.00 | 54 | 1007.5 |
| 20260508110200 | 40 | 211 | 1.0 | 1.0 | 0.00 | 0.00 | 0.00 | 54 | 1007.3 |
| 20260508105655 | 40 | 211 | 1.0 | 1.0 | 0.00 | 0.00 | 0.00 | 53 | 1007.4 |
| 20260508105152 | 40 | 213 | 1.0 | 2.0 | 0.00 | 0.00 | 0.00 | 53 | 1007.4 |
| 20260508104649 | 40 | 213 | 1.0 | 1.0 | 0.00 | 0.00 | 0.00 | 54 | 1007.4 |
| 20260508104146 | 40 | 213 | 1.0 | 1.0 | 0.00 | 0.00 | 0.00 | 55 | 1007.4 |
| 20260508103643 | 40 | 213 | 0.0 | 1.0 | 0.00 | 0.00 | 0.00 | 54 | 1007.5 |
| 20260508103140 | 40 | 213 | 0.0 | 1.0 | 0.00 | 0.00 | 0.00 | 54 | 1007.8 |
| 20260508102637 | 40 | 213 | 1.0 | 1.0 | 0.00 | 0.00 | 0.00 | 54 | 1008.0 |
| 20260508102135 | 39 | 213 | 1.0 | 1.0 | 0.00 | 0.00 | 0.00 | 55 | 1007.7 |
| 20260508101632 | 39 | 213 | 0.0 | 1.0 | 0.00 | 0.00 | 0.00 | 56 | 1007.5 |
| 20260508101130 | 39 | 213 | 1.0 | 1.0 | 0.00 | 0.00 | 0.00 | 56 | 1007.6 |
| 20260508100627 | 39 | 213 | 0.0 | 1.0 | 0.00 | 0.00 | 0.00 | 55 | 1007.5 |
| 20260508100125 | 38 | 213 | 0.0 | 1.0 | 0.00 | 0.00 | 0.00 | 57 | 1007.6 |
| 20260508095621 | 37 | 213 | 1.0 | 1.0 | 0.00 | 0.00 | 0.00 | 60 | 1007.5 |
| 20260508095118 | 37 | 213 | 0.0 | 0.0 | 0.00 | 0.00 | 0.00 | 64 | 1007.5 |
| 20260508094615 | 37 | 213 | 0.0 | 0.0 | 0.00 | 0.00 | 0.00 | 62 | 1007.7 |
| 20260508094112 | 38 | 213 | 0.0 | 0.0 | 0.00 | 0.00 | 0.00 | 61 | 1007.6 |
| 20260508093609 | 39 | 213 | 0.0 | 0.0 | 0.00 | 0.00 | 0.00 | 59 | 1008.0 |
| 20260508093107 | 39 | 213 | 0.0 | 1.0 | 0.00 | 0.00 | 0.00 | 56 | 1007.6 |
| 20260508092604 | 38 | 213 | 0.0 | 0.0 | 0.00 | 0.00 | 0.00 | 59 | 1007.7 |
| 20260508092103 | 37 | 213 | 0.0 | 0.0 | 0.00 | 0.00 | 0.00 | 61 | 1007.6 |
| 20260508091559 | 37 | 213 | 0.0 | 0.0 | 0.00 | 0.00 | 0.00 | 63 | 1007.7 |
| 20260508091056 | 37 | 213 | 0.0 | 0.0 | 0.00 | 0.00 | 0.00 | 64 | 1007.7 |
| 20260508090554 | 37 | 213 | 0.0 | 0.0 | 0.00 | 0.00 | 0.00 | 63 | 1007.7 |
| 20260508090050 | 37 | 213 | 0.0 | 0.0 | 0.00 | 0.00 | 0.00 | 63 | 1007.6 |
| 20260508085547 | 37 | 213 | 0.0 | 0.0 | 0.00 | 0.00 | 0.00 | 63 | 1007.7 |
| 20260508085045 | 37 | 213 | 0.0 | 0.0 | 0.00 | 0.00 | 0.00 | 63 | 1007.7 |
| 20260508084541 | 37 | 213 | 0.0 | 0.0 | 0.00 | 0.00 | 0.00 | 63 | 1007.7 |
| 20260508084038 | 38 | 213 | 0.0 | 0.0 | 0.00 | 0.00 | 0.00 | 62 | 1007.8 |
| 20260508083536 | 38 | 213 | 0.0 | 0.0 | 0.00 | 0.00 | 0.00 | 62 | 1007.8 |
| 20260508083032 | 37 | 213 | 0.0 | 0.0 | 0.00 | 0.00 | 0.00 | 63 | 1007.8 |
| 20260508082528 | 37 | 213 | 0.0 | 0.0 | 0.00 | 0.00 | 0.00 | 62 | 1008.0 |
| 20260508082026 | 37 | 213 | 0.0 | 0.0 | 0.00 | 0.00 | 0.00 | 62 | 1008.0 |
| 20260508081523 | 38 | 213 | 0.0 | 0.0 | 0.00 | 0.00 | 0.00 | 62 | 1008.0 |
| 20260508081019 | 38 | 213 | 0.0 | 0.0 | 0.00 | 0.00 | 0.00 | 62 | 1007.8 |
| 20260508080517 | 38 | 213 | 0.0 | 0.0 | 0.00 | 0.00 | 0.00 | 62 | 1008.1 |
| 20260508080014 | 38 | 213 | 0.0 | 0.0 | 0.00 | 0.00 | 0.00 | 63 | 1008.2 |
| 20260508075511 | 38 | 213 | 0.0 | 0.0 | 0.00 | 0.00 | 0.00 | 62 | 1008.2 |
| 20260508075008 | 38 | 213 | 0.0 | 0.0 | 0.00 | 0.00 | 0.00 | 62 | 1008.2 |
| 20260508074506 | 38 | 213 | 0.0 | 0.0 | 0.00 | 0.00 | 0.00 | 62 | 1008.2 |
| 20260508074003 | 39 | 213 | 0.0 | 0.0 | 0.00 | 0.00 | 0.00 | 62 | 1008.2 |
| 20260508073500 | 39 | 213 | 0.0 | 0.0 | 0.00 | 0.00 | 0.00 | 62 | 1008.5 |
| 20260508072957 | 39 | 213 | 0.0 | 1.0 | 0.00 | 0.00 | 0.00 | 58 | 1008.1 |
| 20260508072453 | 39 | 213 | 0.0 | 0.0 | 0.00 | 0.00 | 0.00 | 60 | 1008.4 |
| 20260508071950 | 39 | 213 | 0.0 | 1.0 | 0.00 | 0.00 | 0.00 | 60 | 1008.3 |
| 20260508071448 | 39 | 213 | 0.0 | 1.0 | 0.00 | 0.00 | 0.00 | 61 | 1008.5 |
| 20260508070945 | 39 | 213 | 0.0 | 0.0 | 0.00 | 0.00 | 0.00 | 63 | 1008.7 |
| 20260508070443 | 39 | 213 | 0.0 | 0.0 | 0.00 | 0.00 | 0.00 | 63 | 1008.4 |
| 20260508065941 | 39 | 213 | 0.0 | 0.0 | 0.00 | 0.00 | 0.00 | 62 | 1008.5 |
| 20260508065439 | 39 | 213 | 0.0 | 0.0 | 0.00 | 0.00 | 0.00 | 61 | 1008.5 |
| 20260508064936 | 39 | 213 | 0.0 | 0.0 | 0.00 | 0.00 | 0.00 | 59 | 1008.5 |
| 20260508064434 | 40 | 213 | 0.0 | 0.0 | 0.00 | 0.00 | 0.00 | 60 | 1008.5 |
| 20260508063931 | 40 | 213 | 0.0 | 0.0 | 0.00 | 0.00 | 0.00 | 59 | 1008.6 |
| 20260508063429 | 40 | 213 | 0.0 | 0.0 | 0.00 | 0.00 | 0.00 | 57 | 1008.7 |
| 20260508062926 | 41 | 213 | 0.0 | 1.0 | 0.00 | 0.00 | 0.00 | 57 | 1008.7 |
| 20260508062424 | 41 | 213 | 0.0 | 1.0 | 0.00 | 0.00 | 0.00 | 57 | 1008.7 |
| 20260508061921 | 40 | 213 | 1.0 | 1.0 | 0.00 | 0.00 | 0.00 | 54 | 1008.8 |
| 20260508061418 | 40 | 213 | 0.0 | 1.0 | 0.00 | 0.00 | 0.00 | 59 | 1008.8 |
| 20260508060914 | 40 | 213 | 0.0 | 0.0 | 0.00 | 0.00 | 0.00 | 59 | 1008.9 |
| 20260508060412 | 40 | 213 | 0.0 | 0.0 | 0.00 | 0.00 | 0.00 | 59 | 1008.9 |
| 20260508055907 | 41 | 213 | 0.0 | 0.0 | 0.00 | 0.00 | 0.00 | 59 | 1008.8 |
| 20260508055405 | 41 | 213 | 0.0 | 0.0 | 0.00 | 0.00 | 0.00 | 58 | 1008.8 |
| 20260508054901 | 41 | 213 | 0.0 | 1.0 | 0.00 | 0.00 | 0.00 | 58 | 1008.8 |
| 20260508054358 | 41 | 213 | 0.0 | 1.0 | 0.00 | 0.00 | 0.00 | 56 | 1008.8 |
| 20260508053855 | 41 | 213 | 0.0 | 1.0 | 0.00 | 0.00 | 0.00 | 58 | 1008.8 |
| 20260508053352 | 41 | 213 | 1.0 | 1.0 | 0.00 | 0.00 | 0.00 | 58 | 1008.7 |
| 20260508052850 | 41 | 213 | 0.0 | 0.0 | 0.00 | 0.00 | 0.00 | 57 | 1008.9 |
| 20260508052347 | 41 | 213 | 0.0 | 0.0 | 0.00 | 0.00 | 0.00 | 56 | 1008.9 |
| 20260508051843 | 41 | 213 | 0.0 | 0.0 | 0.00 | 0.00 | 0.00 | 56 | 1008.9 |
| 20260508051338 | 42 | 213 | 0.0 | 1.0 | 0.00 | 0.00 | 0.00 | 55 | 1008.8 |
| 20260508050835 | 43 | 213 | 0.0 | 0.0 | 0.00 | 0.00 | 0.00 | 53 | 1008.9 |
| 20260508050333 | 43 | 213 | 0.0 | 0.0 | 0.00 | 0.00 | 0.00 | 51 | 1008.7 |
| 20260508045828 | 43 | 213 | 1.0 | 1.0 | 0.00 | 0.00 | 0.00 | 50 | 1008.8 |
| 20260508045326 | 43 | 213 | 0.0 | 1.0 | 0.00 | 0.00 | 0.00 | 51 | 1009.1 |
| 20260508044823 | 43 | 213 | 0.0 | 1.0 | 0.00 | 0.00 | 0.00 | 51 | 1008.9 |
| 20260508044320 | 43 | 213 | 1.0 | 1.0 | 0.00 | 0.00 | 0.00 | 52 | 1008.9 |
| 20260508043816 | 43 | 213 | 1.0 | 1.0 | 0.00 | 0.00 | 0.00 | 51 | 1009.1 |
| 20260508043313 | 43 | 213 | 1.0 | 2.0 | 0.00 | 0.00 | 0.00 | 50 | 1009.2 |
| 20260508042810 | 44 | 211 | 1.0 | 2.0 | 0.00 | 0.00 | 0.00 | 50 | 1009.2 |
| 20260508042308 | 44 | 213 | 1.0 | 1.0 | 0.00 | 0.00 | 0.00 | 49 | 1009.2 |
| 20260508041804 | 44 | 214 | 1.0 | 1.0 | 0.00 | 0.00 | 0.00 | 48 | 1009.3 |
| 20260508041301 | 44 | 214 | 1.0 | 2.0 | 0.00 | 0.00 | 0.00 | 49 | 1009.1 |
| 20260508040757 | 44 | 218 | 1.0 | 1.0 | 0.00 | 0.00 | 0.00 | 49 | 1009.3 |
| 20260508040255 | 44 | 219 | 1.0 | 1.0 | 0.00 | 0.00 | 0.00 | 49 | 1009.3 |
| 20260508035752 | 44 | 220 | 1.0 | 2.0 | 0.00 | 0.00 | 0.00 | 47 | 1009.3 |
| 20260508035249 | 44 | 224 | 1.0 | 2.0 | 0.00 | 0.00 | 0.00 | 48 | 1009.1 |
| 20260508034745 | 45 | 225 | 1.0 | 1.0 | 0.00 | 0.00 | 0.00 | 49 | 1009.3 |
| 20260508034243 | 45 | 225 | 1.0 | 1.0 | 0.00 | 0.00 | 0.00 | 49 | 1009.5 |
| 20260508033740 | 45 | 225 | 1.0 | 1.0 | 0.00 | 0.00 | 0.00 | 47 | 1009.6 |
| 20260508033238 | 46 | 225 | 1.0 | 2.0 | 0.00 | 0.00 | 0.00 | 46 | 1009.4 |
| 20260508032735 | 46 | 228 | 1.0 | 1.0 | 0.00 | 0.00 | 0.00 | 46 | 1009.5 |
| 20260508032232 | 46 | 228 | 1.0 | 1.0 | 0.00 | 0.00 | 0.00 | 47 | 1009.5 |
| 20260508031729 | 46 | 228 | 1.0 | 1.0 | 0.00 | 0.00 | 0.00 | 47 | 1009.3 |
| 20260508031225 | 46 | 228 | 1.0 | 1.0 | 0.00 | 0.00 | 0.00 | 44 | 1009.4 |
| 20260508030722 | 47 | 221 | 1.0 | 1.0 | 0.00 | 0.00 | 0.00 | 46 | 1009.5 |
| 20260508030220 | 47 | 221 | 1.0 | 2.0 | 0.00 | 0.00 | 0.00 | 43 | 1009.4 |
| 20260508025715 | 47 | 225 | 1.0 | 2.0 | 0.00 | 0.00 | 0.00 | 44 | 1009.5 |
| 20260508025213 | 48 | 228 | 1.0 | 1.0 | 0.00 | 0.00 | 0.00 | 43 | 1009.4 |
| 20260508024709 | 47 | 228 | 1.0 | 1.0 | 0.00 | 0.00 | 0.00 | 41 | 1009.3 |
| 20260508024206 | 48 | 242 | 1.0 | 1.0 | 0.00 | 0.00 | 0.00 | 42 | 1009.3 |
| 20260508023702 | 48 | 242 | 1.0 | 1.0 | 0.00 | 0.00 | 0.00 | 41 | 1009.4 |
| 20260508023200 | 48 | 243 | 1.0 | 1.0 | 0.00 | 0.00 | 0.00 | 40 | 1009.5 |
| 20260508022655 | 49 | 243 | 1.0 | 1.0 | 0.00 | 0.00 | 0.00 | 40 | 1009.4 |
| 20260508022153 | 49 | 243 | 1.0 | 1.0 | 0.00 | 0.00 | 0.00 | 39 | 1009.4 |
| 20260508021649 | 50 | 244 | 1.0 | 1.0 | 0.00 | 0.00 | 0.00 | 38 | 1009.2 |
| 20260508021144 | 50 | 243 | 0.0 | 1.0 | 0.00 | 0.00 | 0.00 | 38 | 1009.2 |
| 20260508020642 | 51 | 243 | 1.0 | 1.0 | 0.00 | 0.00 | 0.00 | 35 | 1009.1 |
| 20260508020140 | 51 | 243 | 1.0 | 1.0 | 0.00 | 0.00 | 0.00 | 35 | 1009.0 |
| 20260508015637 | 51 | 243 | 1.0 | 1.0 | 0.00 | 0.00 | 0.00 | 35 | 1009.0 |
| 20260508015134 | 51 | 243 | 1.0 | 1.0 | 0.00 | 0.00 | 0.00 | 34 | 1009.1 |
| 20260508014630 | 52 | 243 | 1.0 | 1.0 | 0.00 | 0.00 | 0.00 | 33 | 1009.1 |
| 20260508014126 | 52 | 244 | 1.0 | 1.0 | 0.00 | 0.00 | 0.00 | 33 | 1009.0 |
| 20260508013623 | 52 | 244 | 0.0 | 1.0 | 0.00 | 0.00 | 0.00 | 33 | 1008.9 |
| 20260508013120 | 53 | 244 | 0.0 | 0.0 | 0.00 | 0.00 | 0.00 | 32 | 1009.0 |
| 20260508012617 | 53 | 244 | 1.0 | 1.0 | 0.00 | 0.00 | 0.00 | 32 | 1008.9 |
| 20260508012114 | 54 | 244 | 0.0 | 0.0 | 0.00 | 0.00 | 0.00 | 32 | 1008.8 |
| 20260508011613 | 55 | 244 | 0.0 | 1.0 | 0.00 | 0.00 | 0.00 | 30 | 1008.8 |
| 20260508011109 | 55 | 245 | 1.0 | 1.0 | 0.00 | 0.00 | 0.00 | 29 | 1008.9 |
| 20260508010606 | 56 | 264 | 1.0 | 1.0 | 0.00 | 0.00 | 0.00 | 28 | 1008.9 |
| 20260508010105 | 56 | 283 | 1.0 | 2.0 | 0.00 | 0.00 | 0.00 | 28 | 1008.8 |
| 20260508005600 | 56 | 268 | 1.0 | 1.0 | 0.00 | 0.00 | 0.00 | 27 | 1009.0 |
| 20260508005057 | 57 | 276 | 1.0 | 5.0 | 0.00 | 0.00 | 0.00 | 27 | 1008.8 |
| 20260508004553 | 57 | 258 | 0.0 | 1.0 | 0.00 | 0.00 | 0.00 | 28 | 1008.8 |
| 20260508004050 | 57 | 269 | 0.0 | 2.0 | 0.00 | 0.00 | 0.00 | 27 | 1008.8 |
| 20260508003546 | 57 | 190 | 3.0 | 3.0 | 0.00 | 0.00 | 0.00 | 26 | 1008.9 |
| 20260508003044 | 57 | 326 | 3.0 | 3.0 | 0.00 | 0.00 | 0.00 | 26 | 1008.8 |
| 20260508002540 | 57 | 276 | 2.0 | 3.0 | 0.00 | 0.00 | 0.00 | 26 | 1008.9 |
| 20260508002038 | 58 | 218 | 2.0 | 2.0 | 0.00 | 0.00 | 0.00 | 26 | 1008.9 |
| 20260508001533 | 57 | 246 | 1.0 | 6.0 | 0.00 | 0.00 | 0.00 | 26 | 1008.8 |
| 20260508001029 | 58 | 276 | 1.0 | 3.0 | 0.00 | 0.00 | 0.00 | 26 | 1008.9 |
| 20260508000525 | 58 | 264 | 1.0 | 2.0 | 0.00 | 0.00 | 0.00 | 26 | 1008.8 |
| 20260508000023 | 58 | 276 | 1.0 | 2.0 | 0.00 | 0.00 | 0.00 | 25 | 1009.0 |
| 20260507235519 | 58 | 254 | 2.0 | 3.0 | 0.00 | 0.00 | 0.00 | 26 | 1009.1 |
| 20260507235017 | 57 | 312 | 4.0 | 8.0 | 0.00 | 0.00 | 0.00 | 25 | 1009.1 |
| 20260507234513 | 58 | 308 | 2.0 | 7.0 | 0.00 | 0.00 | 0.00 | 25 | 1009.1 |
| 20260507234010 | 58 | 246 | 2.0 | 3.0 | 0.00 | 0.00 | 0.00 | 25 | 1009.1 |
| 20260507233506 | 58 | 255 | 1.0 | 3.0 | 0.00 | 0.00 | 0.00 | 25 | 1009.1 |
| 20260507233005 | 58 | 354 | 3.0 | 5.0 | 0.00 | 0.00 | 0.00 | 25 | 1009.3 |
| 20260507232501 | 59 | 332 | 1.0 | 6.0 | 0.00 | 0.00 | 0.00 | 25 | 1009.3 |
| 20260507231959 | 58 | 235 | 3.0 | 3.0 | 0.00 | 0.00 | 0.00 | 26 | 1009.2 |
| 20260507231455 | 58 | 216 | 1.0 | 3.0 | 0.00 | 0.00 | 0.00 | 23 | 1009.3 |
| 20260507230952 | 58 | 265 | 3.0 | 7.0 | 0.00 | 0.00 | 0.00 | 24 | 1009.2 |
| 20260507230449 | 58 | 289 | 1.0 | 3.0 | 0.00 | 0.00 | 0.00 | 25 | 1009.2 |
| 20260507225944 | 57 | 301 | 2.0 | 5.0 | 0.00 | 0.00 | 0.00 | 25 | 1009.4 |
| 20260507225440 | 58 | 264 | 4.0 | 8.0 | 0.00 | 0.00 | 0.00 | 24 | 1009.4 |
| 20260507224937 | 58 | 251 | 2.0 | 5.0 | 0.00 | 0.00 | 0.00 | 24 | 1009.3 |
| 20260507224432 | 58 | 313 | 3.0 | 3.0 | 0.00 | 0.00 | 0.00 | 24 | 1009.4 |
| 20260507223930 | 58 | 289 | 2.0 | 7.0 | 0.00 | 0.00 | 0.00 | 24 | 1009.4 |
| 20260507223425 | 58 | 291 | 4.0 | 7.0 | 0.00 | 0.00 | 0.00 | 24 | 1009.5 |
| 20260507222922 | 58 | 310 | 3.0 | 3.0 | 0.00 | 0.00 | 0.00 | 24 | 1009.5 |
| 20260507222419 | 57 | 331 | 6.0 | 8.0 | 0.00 | 0.00 | 0.00 | 25 | 1009.6 |
| 20260507221916 | 58 | 318 | 3.0 | 7.0 | 0.00 | 0.00 | 0.00 | 24 | 1009.4 |
| 20260507221412 | 58 | 260 | 1.0 | 6.0 | 0.00 | 0.00 | 0.00 | 25 | 1009.5 |
| 20260507220908 | 59 | 8 | 3.0 | 5.0 | 0.00 | 0.00 | 0.00 | 24 | 1009.6 |
| 20260507220407 | 60 | 242 | 1.0 | 5.0 | 0.00 | 0.00 | 0.00 | 24 | 1009.6 |
| 20260507215903 | 58 | 303 | 2.0 | 5.0 | 0.00 | 0.00 | 0.00 | 25 | 1009.6 |
| 20260507215400 | 58 | 291 | 4.0 | 6.0 | 0.00 | 0.00 | 0.00 | 24 | 1009.6 |
| 20260507214857 | 58 | 258 | 2.0 | 7.0 | 0.00 | 0.00 | 0.00 | 26 | 1009.6 |
| 20260507214354 | 57 | 282 | 2.0 | 5.0 | 0.00 | 0.00 | 0.00 | 26 | 1009.5 |
| 20260507213850 | 57 | 301 | 1.0 | 6.0 | 0.00 | 0.00 | 0.00 | 25 | 1009.9 |
| 20260507213347 | 57 | 261 | 3.0 | 7.0 | 0.00 | 0.00 | 0.00 | 25 | 1009.7 |
| 20260507212844 | 57 | 298 | 4.0 | 6.0 | 0.00 | 0.00 | 0.00 | 26 | 1009.7 |
| 20260507212339 | 57 | 266 | 3.0 | 7.0 | 0.00 | 0.00 | 0.00 | 25 | 1009.9 |
| 20260507211836 | 57 | 278 | 4.0 | 6.0 | 0.00 | 0.00 | 0.00 | 25 | 1009.7 |
| 20260507211333 | 57 | 242 | 3.0 | 9.0 | 0.00 | 0.00 | 0.00 | 27 | 1009.8 |
| 20260507210830 | 58 | 230 | 3.0 | 3.0 | 0.00 | 0.00 | 0.00 | 24 | 1009.9 |
| 20260507210327 | 57 | 231 | 3.0 | 5.0 | 0.00 | 0.00 | 0.00 | 26 | 1009.7 |
| 20260507205823 | 56 | 245 | 4.0 | 7.0 | 0.00 | 0.00 | 0.00 | 26 | 1010.0 |
| 20260507205321 | 57 | 261 | 1.0 | 6.0 | 0.00 | 0.00 | 0.00 | 26 | 1010.0 |
| 20260507204816 | 57 | 223 | 3.0 | 6.0 | 0.00 | 0.00 | 0.00 | 25 | 1010.3 |
| 20260507204314 | 57 | 273 | 2.0 | 5.0 | 0.00 | 0.00 | 0.00 | 25 | 1010.1 |
| 20260507203812 | 55 | 187 | 1.0 | 7.0 | 0.00 | 0.00 | 0.00 | 26 | 1010.1 |
| 20260507203309 | 56 | 270 | 1.0 | 5.0 | 0.00 | 0.00 | 0.00 | 25 | 1010.2 |
| 20260507202805 | 56 | 286 | 2.0 | 8.0 | 0.00 | 0.00 | 0.00 | 25 | 1010.3 |
| 20260507202306 | 57 | 321 | 3.0 | 7.0 | 0.00 | 0.00 | 0.00 | 25 | 1010.3 |
| 20260507201756 | 56 | 247 | 1.0 | 8.0 | 0.00 | 0.00 | 0.00 | 25 | 1010.4 |
| 20260507201253 | 56 | 284 | 5.0 | 7.0 | 0.00 | 0.00 | 0.00 | 25 | 1010.5 |
| 20260507200750 | 55 | 278 | 3.0 | 7.0 | 0.00 | 0.00 | 0.00 | 26 | 1010.4 |
| 20260507200246 | 55 | 231 | 1.0 | 2.0 | 0.00 | 0.00 | 0.00 | 25 | 1010.5 |
| 20260507195742 | 56 | 332 | 3.0 | 7.0 | 0.00 | 0.00 | 0.00 | 26 | 1010.8 |
| 20260507195239 | 57 | 269 | 4.0 | 7.0 | 0.00 | 0.00 | 0.00 | 26 | 1010.4 |
| 20260507194737 | 55 | 253 | 1.0 | 6.0 | 0.00 | 0.00 | 0.00 | 25 | 1010.4 |
| 20260507194232 | 54 | 244 | 3.0 | 5.0 | 0.00 | 0.00 | 0.00 | 29 | 1010.4 |
| 20260507193729 | 55 | 242 | 4.0 | 7.0 | 0.00 | 0.00 | 0.00 | 26 | 1010.7 |
| 20260507193226 | 55 | 289 | 3.0 | 10.0 | 0.00 | 0.00 | 0.00 | 25 | 1010.6 |
| 20260507192722 | 55 | 282 | 3.0 | 6.0 | 0.00 | 0.00 | 0.00 | 25 | 1010.7 |
| 20260507192219 | 55 | 310 | 4.0 | 6.0 | 0.00 | 0.00 | 0.00 | 27 | 1010.6 |
| 20260507191715 | 55 | 268 | 2.0 | 3.0 | 0.00 | 0.00 | 0.00 | 27 | 1010.7 |
| 20260507191212 | 55 | 279 | 2.0 | 7.0 | 0.00 | 0.00 | 0.00 | 26 | 1010.7 |
| 20260507190709 | 54 | 276 | 1.0 | 3.0 | 0.00 | 0.00 | 0.00 | 27 | 1010.8 |
| 20260507190208 | 53 | 245 | 2.0 | 9.0 | 0.00 | 0.00 | 0.00 | 29 | 1010.8 |
| 20260507185706 | 54 | 60 | 3.0 | 6.0 | 0.00 | 0.00 | 0.00 | 28 | 1010.8 |
| 20260507185202 | 53 | 282 | 3.0 | 8.0 | 0.00 | 0.00 | 0.00 | 31 | 1010.8 |
| 20260507184700 | 53 | 28 | 6.0 | 7.0 | 0.00 | 0.00 | 0.00 | 29 | 1010.7 |
| 20260507184158 | 53 | 260 | 1.0 | 5.0 | 0.00 | 0.00 | 0.00 | 28 | 1010.7 |
| 20260507183653 | 54 | 324 | 3.0 | 3.0 | 0.00 | 0.00 | 0.00 | 29 | 1010.8 |
| 20260507183151 | 53 | 34 | 2.0 | 3.0 | 0.00 | 0.00 | 0.00 | 30 | 1010.9 |
| 20260507182648 | 53 | 295 | 4.0 | 6.0 | 0.00 | 0.00 | 0.00 | 29 | 1011.0 |
| 20260507182143 | 53 | 273 | 4.0 | 7.0 | 0.00 | 0.00 | 0.00 | 29 | 1011.1 |
| 20260507181640 | 54 | 5 | 3.0 | 5.0 | 0.00 | 0.00 | 0.00 | 31 | 1010.9 |
| 20260507181136 | 53 | 270 | 5.0 | 6.0 | 0.00 | 0.00 | 0.00 | 31 | 1011.1 |
| 20260507180633 | 53 | 252 | 2.0 | 8.0 | 0.00 | 0.00 | 0.00 | 30 | 1010.9 |
| 20260507180130 | 52 | 49 | 3.0 | 6.0 | 0.00 | 0.00 | 0.00 | 31 | 1010.9 |
| 20260507175626 | 51 | 16 | 3.0 | 6.0 | 0.00 | 0.00 | 0.00 | 32 | 1011.0 |
| 20260507175123 | 53 | 290 | 2.0 | 7.0 | 0.00 | 0.00 | 0.00 | 31 | 1011.1 |
| 20260507174620 | 51 | 76 | 1.0 | 3.0 | 0.00 | 0.00 | 0.00 | 32 | 1011.1 |
| 20260507174118 | 52 | 223 | 2.0 | 2.0 | 0.00 | 0.00 | 0.00 | 32 | 1011.0 |
| 20260507173615 | 51 | 296 | 3.0 | 5.0 | 0.00 | 0.00 | 0.00 | 31 | 1011.4 |
| 20260507173112 | 51 | 321 | 4.0 | 7.0 | 0.00 | 0.00 | 0.00 | 32 | 1011.5 |
| 20260507172608 | 51 | 206 | 0.0 | 3.0 | 0.00 | 0.00 | 0.00 | 32 | 1011.4 |
| 20260507172106 | 51 | 33 | 3.0 | 8.0 | 0.00 | 0.00 | 0.00 | 31 | 1011.5 |
| 20260507171600 | 51 | 18 | 3.0 | 10.0 | 0.00 | 0.00 | 0.00 | 31 | 1011.4 |
| 20260507171058 | 51 | 60 | 4.0 | 8.0 | 0.00 | 0.00 | 0.00 | 32 | 1011.7 |
| 20260507170555 | 51 | 8 | 3.0 | 3.0 | 0.00 | 0.00 | 0.00 | 32 | 1011.6 |
| 20260507170051 | 50 | 75 | 6.0 | 9.0 | 0.00 | 0.00 | 0.00 | 31 | 1011.6 |
| 20260507165547 | 50 | 342 | 5.0 | 7.0 | 0.00 | 0.00 | 0.00 | 32 | 1011.8 |
| 20260507165038 | 51 | 273 | 3.0 | 9.0 | 0.00 | 0.00 | 0.00 | 32 | 1011.7 |
| 20260507164534 | 50 | 279 | 4.0 | 5.0 | 0.00 | 0.00 | 0.00 | 33 | 1011.8 |
| 20260507164031 | 50 | 42 | 4.0 | 8.0 | 0.00 | 0.00 | 0.00 | 34 | 1011.8 |
| 20260507163528 | 50 | 308 | 2.0 | 3.0 | 0.00 | 0.00 | 0.00 | 34 | 1011.7 |
| 20260507163026 | 51 | 320 | 3.0 | 8.0 | 0.00 | 0.00 | 0.00 | 34 | 1011.9 |
| 20260507162521 | 50 | 276 | 2.0 | 7.0 | 0.00 | 0.00 | 0.00 | 36 | 1011.8 |
| 20260507162018 | 50 | 351 | 2.0 | 6.0 | 0.00 | 0.00 | 0.00 | 34 | 1011.8 |
| 20260507161514 | 50 | 309 | 3.0 | 3.0 | 0.00 | 0.00 | 0.00 | 36 | 1011.9 |
| 20260507161012 | 49 | 53 | 5.0 | 7.0 | 0.00 | 0.00 | 0.00 | 36 | 1012.1 |
| 20260507160507 | 48 | 306 | 7.0 | 8.0 | 0.00 | 0.00 | 0.00 | 37 | 1012.0 |
| 20260507160004 | 48 | 7 | 0.0 | 5.0 | 0.00 | 0.00 | 0.00 | 37 | 1011.9 |
| 20260507155459 | 49 | 81 | 4.0 | 8.0 | 0.00 | 0.00 | 0.00 | 37 | 1012.2 |
| 20260507154956 | 48 | 49 | 5.0 | 8.0 | 0.00 | 0.00 | 0.00 | 36 | 1012.1 |
| 20260507154453 | 48 | 26 | 3.0 | 5.0 | 0.00 | 0.00 | 0.00 | 36 | 1012.1 |
| 20260507153950 | 48 | 57 | 5.0 | 7.0 | 0.00 | 0.00 | 0.00 | 36 | 1012.2 |
| 20260507153447 | 48 | 33 | 5.0 | 6.0 | 0.00 | 0.00 | 0.00 | 37 | 1012.2 |
| 20260507152943 | 48 | 266 | 2.0 | 6.0 | 0.00 | 0.00 | 0.00 | 39 | 1012.1 |
| 20260507152439 | 46 | 43 | 3.0 | 6.0 | 0.00 | 0.00 | 0.00 | 40 | 1012.2 |
| 20260507151936 | 48 | 51 | 1.0 | 3.0 | 0.00 | 0.00 | 0.00 | 38 | 1012.3 |
| 20260507151432 | 47 | 47 | 5.0 | 8.0 | 0.00 | 0.00 | 0.00 | 38 | 1012.2 |
| 20260507150929 | 47 | 294 | 1.0 | 3.0 | 0.00 | 0.00 | 0.00 | 39 | 1012.3 |
| 20260507150426 | 47 | 168 | 0.0 | 2.0 | 0.00 | 0.00 | 0.00 | 41 | 1012.2 |
| 20260507145922 | 47 | 316 | 3.0 | 5.0 | 0.00 | 0.00 | 0.00 | 43 | 1012.2 |
| 20260507145418 | 47 | 13 | 2.0 | 2.0 | 0.00 | 0.00 | 0.00 | 45 | 1012.1 |
| 20260507144915 | 46 | 314 | 4.0 | 6.0 | 0.00 | 0.00 | 0.00 | 45 | 1012.3 |
| 20260507144412 | 46 | 58 | 4.0 | 5.0 | 0.00 | 0.00 | 0.00 | 45 | 1012.3 |
| 20260507143909 | 45 | 60 | 3.0 | 6.0 | 0.00 | 0.00 | 0.00 | 47 | 1012.3 |
| 20260507143407 | 45 | 46 | 1.0 | 6.0 | 0.00 | 0.00 | 0.00 | 48 | 1012.4 |
| 20260507142903 | 46 | 294 | 3.0 | 6.0 | 0.00 | 0.00 | 0.00 | 50 | 1012.4 |
| 20260507142359 | 46 | 241 | 1.0 | 3.0 | 0.00 | 0.00 | 0.00 | 49 | 1012.3 |
| 20260507141856 | 45 | 213 | 2.0 | 2.0 | 0.00 | 0.00 | 0.00 | 51 | 1012.5 |
| 20260507141352 | 45 | 311 | 2.0 | 3.0 | 0.00 | 0.00 | 0.00 | 50 | 1012.4 |
| 20260507140849 | 45 | 277 | 1.0 | 2.0 | 0.00 | 0.00 | 0.00 | 51 | 1012.6 |
| 20260507140346 | 45 | 44 | 3.0 | 5.0 | 0.00 | 0.00 | 0.00 | 52 | 1012.8 |
| 20260507135844 | 44 | 15 | 2.0 | 3.0 | 0.00 | 0.00 | 0.00 | 55 | 1012.6 |
| 20260507135340 | 46 | 48 | 2.0 | 3.0 | 0.00 | 0.00 | 0.00 | 52 | 1012.5 |
| 20260507134838 | 45 | 230 | 0.0 | 1.0 | 0.00 | 0.00 | 0.00 | 54 | 1012.8 |
| 20260507134333 | 45 | 245 | 1.0 | 1.0 | 0.00 | 0.00 | 0.00 | 54 | 1012.9 |
| 20260507133830 | 44 | 304 | 1.0 | 1.0 | 0.00 | 0.00 | 0.00 | 58 | 1012.8 |
| 20260507133325 | 43 | 209 | 0.0 | 1.0 | 0.00 | 0.00 | 0.00 | 58 | 1013.0 |
| 20260507132824 | 42 | 272 | 0.0 | 1.0 | 0.00 | 0.00 | 0.00 | 61 | 1012.5 |
| 20260507132320 | 42 | 237 | 0.0 | 1.0 | 0.00 | 0.00 | 0.00 | 63 | 1012.9 |
| 20260507131818 | 41 | 254 | 1.0 | 1.0 | 0.00 | 0.00 | 0.00 | 65 | 1012.9 |
| 20260507131314 | 40 | 216 | 0.0 | 0.0 | 0.00 | 0.00 | 0.00 | 68 | 1012.9 |
| 20260507130810 | 40 | 216 | 1.0 | 1.0 | 0.00 | 0.00 | 0.00 | 67 | 1013.0 |
| 20260507130308 | 40 | 216 | 0.0 | 0.0 | 0.00 | 0.00 | 0.00 | 68 | 1013.0 |
| 20260507125807 | 39 | 216 | 0.0 | 1.0 | 0.00 | 0.00 | 0.00 | 69 | 1012.9 |
| 20260507125306 | 39 | 216 | 0.0 | 0.0 | 0.00 | 0.00 | 0.00 | 69 | 1012.9 |
| 20260507124801 | 38 | 215 | 0.0 | 0.0 | 0.00 | 0.00 | 0.00 | 72 | 1013.0 |
| 20260507124257 | 37 | 215 | 0.0 | 1.0 | 0.00 | 0.00 | 0.00 | 73 | 1013.0 |
| 20260507123756 | 37 | 215 | 0.0 | 1.0 | 0.00 | 0.00 | 0.00 | 73 | 1013.1 |
| 20260507123253 | 36 | 214 | 0.0 | 1.0 | 0.00 | 0.00 | 0.00 | 74 | 1013.2 |
| 20260507122748 | 35 | 219 | 1.0 | 1.0 | 0.00 | 0.00 | 0.00 | 75 | 1013.0 |
| 20260507122244 | 34 | 219 | 0.0 | 1.0 | 0.00 | 0.00 | 0.00 | 77 | 1013.0 |
| 20260507121740 | 34 | 219 | 0.0 | 1.0 | 0.00 | 0.00 | 0.00 | 78 | 1013.1 |
| 20260507121236 | 33 | 220 | 0.0 | 1.0 | 0.00 | 0.00 | 0.00 | 79 | 1013.2 |
| 20260507120732 | 33 | 220 | 0.0 | 1.0 | 0.00 | 0.00 | 0.00 | 80 | 1013.0 |
| 20260507120230 | 33 | 220 | 0.0 | 0.0 | 0.00 | 0.00 | 0.00 | 80 | 1013.1 |
| 20260507115726 | 32 | 220 | 0.0 | 0.0 | 0.00 | 0.00 | 0.00 | 81 | 1013.1 |